Regional Weather Roundup
Issued by NWS

Home | Current Version | Previous Version | Graphics & Text | Print | Product List | Glossary On
Versions: 1 2 3 4 5 6 7 8 9 10 11 12 13 14 15 16 17 18 19 20 21 22 23 24 25 26 27 28 29 30 31 32 33 34 35 36 37 38 39 40 41 42 43 44 45 46 47 48 49 50
000
ASUS43 KLMK 230010
RWRKY
KENTUCKY REGIONAL WEATHER ROUNDUP
NATIONAL WEATHER SERVICE LOUISVILLE KY
800 PM EDT TUE APR 22 2014

NOTE "FAIR" INDICATES FEW OR NO CLOUDS BELOW 12,000 FEET
WITH NO SIGNIFICANT WEATHER AND/OR OBSTRUCTIONS TO VISIBILITY.

KYZ001>023-026-027-061>063-070>075-230100-
WESTERN AND SOUTH CENTRAL KENTUCKY

CITY           SKY/WX    TMP DP  RH WIND       PRES   REMARKS
PADUCAH        CLEAR     68  37  32 N10       29.93R
HENDERSON      CLEAR     64  34  32 N9        29.93S
OWENSBORO      CLEAR     65  38  36 NW13      29.93R
HOPKINSVILLE   CLEAR     68  41  37 N8        29.90R
BOWLING GREEN  CLEAR     69  40  34 NW10G17   29.88R
GLASGOW        CLEAR     67  39  35 N8        29.87R
$$

KYZ024-025-028>034-038-045-046-053-230100-
NORTH CENTRAL KENTUCKY

CITY           SKY/WX    TMP DP  RH WIND       PRES   REMARKS
LOUISVILLE/SDF PTCLDY    67  34  29 NW15      29.87R
LOUISVILLE/LOU CLEAR     69  28  21 N12       29.87R
FORT KNOX      CLEAR     65  33  30 NW13      29.87R
$$

KYZ035>037-039>044-047>052-055>060-089>105-230100-
NORTHEAST KENTUCKY

CITY           SKY/WX    TMP DP  RH WIND       PRES   REMARKS
LEXINGTON      CLEAR     63  29  27 NW13      29.85R
COVINGTON      PTCLDY    58  32  37 NW16      29.89R
FRANKFORT      CLEAR     64  30  27 N12       29.86R
$$

KYZ054-064>069-076>088-106>120-230100-
SOUTHEAST KENTUCKY

CITY           SKY/WX    TMP DP  RH WIND       PRES   REMARKS
JACKSON        CLEAR     67  38  34 W10G20    29.82R
LONDON         PTCLDY    69  49  48 NW12      29.82R
SOMERSET       PTCLDY    68  41  37 N12G20    29.84R
MIDDLESBORO    CLEAR     67  58  72 W3        29.80R
MONTICELLO     CLEAR     68  44  41 NW9       29.85R
$$




USA.gov is the U.S. government's official web portal to all federal, state and local government web resources and services.